Location: Celina Division
(33.3022°N, 96.7580°W)
Time: 01:27:28
(UTC+00:00)

Nadezhda 4 Rocket - Pass Details

Date: 12 July 2022
Orbit: 949 x 992 km, 82.9° (Epoch: 08 August)

Event Time Altitude Azimuth Distance (km) Brightness Sun altitude
Rises 09:12:48 0° 129° (SE) 3,633 7.0 -22.9°
Reaches altitude 10° 09:17:54 10° 92° (E) 2,683 6.8 -22.2°
Maximum altitude 09:19:02 11° 81° (E) 2,643 6.9 -22.0°
Drops below altitude 10° 09:20:10 10° 70° (ENE) 2,682 7.2 -21.8°
Sets 09:25:14 0° 34° (NE) 3,628 8.5 -21.1°
